Weather History for Palm Springs, CA

Change the Weather History Date:

Saturday, October 26, 2013

  Actual Average Record
Temperature  
Mean Temperature 78 °F 72 °F  
Max Temperature 95 °F 86 °F 101 °F (1937)
Min Temperature 61 °F 59 °F 41 °F (1956)
Degree Days  
Heating Degree Days 0 0  
Month to date heating degree days 6 0  
Since 1 July heating degree days 6 0  
Cooling Degree Days 13 8  
Month to date cooling degree days 254 302  
Year to date cooling degree days 4419 4028  
Growing Degree Days 28 (Base 50)    
Moisture  
Dew Point 29 °F    
Average Humidity 19    
Maximum Humidity 31    
Minimum Humidity 7    
Precipitation  
Precipitation 0.00 in 0.02 in 0.22 in (1927)
Month to date precipitation 0.07 0.35  
Year to date precipitation 2.12 4.24  
Since 1 July precipitation 1.15 1.30  
Snow  
Snow 0.00 in - - ()
Month to date snowfall 0.0  
Year to date snowfall 0.0  
Since 1 July snowfall 0.0  
Snow Depth 0.00 in    
Sea Level Pressure  
Sea Level Pressure 30.00 in    
Wind  
Wind Speed 5 mph (NW)    
Max Wind Speed 12 mph    
Max Gust Speed 14 mph    
Visibility 10 miles    
Events      
T = Trace of Precipitation, MM = Missing Value Source: NWS Daily Summary

Daily Weather History Graph

Daily Weather History Graph

Search for Another Location

Airport:

Trip Planner

Search our weather history database for the weather conditions in past years. The results will help you decide how hot, cold, wet, or windy it might be!

Date:

Astronomy

Oct. 26, 2013 Rise Set
Actual Time 7:00 AM PDT 5:59 PM PDT
Civil Twilight 6:34 AM PDT 6:24 PM PDT
Nautical Twilight 6:05 AM PDT 6:53 PM PDT
Astronomical Twilight 5:36 AM PDT 7:22 PM PDT
Moon No Moon Rise 1:16 PM PDT (10/26)
Length of Visible Light 11h 49m
Length of Day
10h 58m
Waning Gibbous, 52% of the Moon is Illuminated
Oct 26
Waning Gibbous
Oct 26
Last Quarter
Nov 3
New
Nov 9
First Quarter
Nov 17
Full

Hourly Weather History & Observations

Time (PDT) Temp. Dew Point Humidity Pressure Visibility Wind Dir Wind Speed Gust Speed Precip Events Conditions
12:53 AM 71.1 °F 33.1 °F 25% 30.02 in 10.0 mi WNW 3.5 mph - N/A   Clear
1:53 AM 68.0 °F 28.0 °F 22% 30.04 in 10.0 mi NNW 8.1 mph - N/A   Clear
2:53 AM 64.0 °F 34.0 °F 33% 30.03 in 10.0 mi Calm Calm - N/A   Clear
3:53 AM 68.0 °F 27.0 °F 21% 30.02 in 10.0 mi NNW 9.2 mph - N/A   Clear
4:53 AM 66.9 °F 24.1 °F 20% 30.01 in 10.0 mi NNW 9.2 mph - N/A   Clear
5:53 AM 71.1 °F 25.0 °F 18% 30.02 in 10.0 mi NW 6.9 mph - N/A   Clear
6:53 AM 66.0 °F 30.0 °F 26% 30.04 in 10.0 mi West 4.6 mph - N/A   Clear
7:53 AM 70.0 °F 26.1 °F 19% 30.05 in 10.0 mi NNW 6.9 mph - N/A   Clear
8:53 AM 77.0 °F 28.9 °F 17% 30.06 in 10.0 mi NNW 6.9 mph - N/A   Clear
9:53 AM 84.0 °F 26.1 °F 12% 30.06 in 10.0 mi Calm Calm - N/A   Clear
10:53 AM 88.0 °F 21.0 °F 9% 30.05 in 10.0 mi Calm Calm - N/A   Clear
11:53 AM 91.9 °F 21.0 °F 8% 30.04 in 10.0 mi Calm Calm - N/A   Clear
12:53 PM 93.0 °F 23.0 °F 8% 30.00 in 9.0 mi SSE 4.6 mph - N/A   Clear
1:53 PM 93.9 °F 23.0 °F 8% 29.98 in 10.0 mi SE 8.1 mph - N/A   Clear
2:53 PM 93.9 °F 21.9 °F 7% 29.96 in 10.0 mi Variable 6.9 mph - N/A   Scattered Clouds
3:53 PM 93.0 °F 23.0 °F 8% 29.96 in 10.0 mi SE 5.8 mph - N/A   Clear
4:53 PM 90.0 °F 39.0 °F 17% 29.95 in 10.0 mi East 9.2 mph - N/A   Clear
5:53 PM 86.0 °F 35.1 °F 16% 29.95 in 10.0 mi East 6.9 mph - N/A   Clear
6:53 PM 82.9 °F 36.0 °F 19% 29.96 in 10.0 mi Calm Calm - N/A   Clear
7:53 PM 79.0 °F 41.0 °F 26% 29.97 in 10.0 mi WSW 3.5 mph - N/A   Clear
8:53 PM 79.0 °F 39.9 °F 25% 29.97 in 10.0 mi North 4.6 mph - N/A   Clear
9:53 PM 75.0 °F 32.0 °F 21% 29.98 in 10.0 mi NNW 4.6 mph - N/A   Clear
10:53 PM 75.0 °F 32.0 °F 21% 29.97 in 10.0 mi NNW 5.8 mph - N/A   Clear
11:53 PM 73.0 °F 35.1 °F 25% 29.95 in 10.0 mi NW 6.9 mph - N/A   Clear